CZ-6A DEB, 55528

Orbit data source: Space-Track

CZ-6A DEB, 55528 is space debris in SSO originally from a launch on Fri, 11 Nov 2022 UTC launched from the Taiyaun Space Center, China (TSC). Debris objects in space refer to the collection of defunct objects orbiting the Earth. Examples of debris include non-operational satellites, rocket bodies, and fragments generated from explosions, collisions, or faulty payload assembly.

Loading next visibility...
Identifier
55528, 2022-151YA
Orbit
SSO
Country
Flag of CNCN / PRC
Related business
Manufacturer
SAST
Mission
Spacecraft
Bus & Motor
Unknown
Mass
Unknown
Launch date (UTC)
2022-11-11 (4 years ago)
Launch vehicle
Unknown
Launch site
Taiyaun Space Center, China (TSC)
Object type
Payload
Rocket body
Debris
Shape & HBR
Unknown shape, 0.1 m
Radar Cross Section
Small (<0.1 m²)

Expand to show TLE details & history
Last TLE update: 14 hours ago

TLE from 14 hours ago
0 CZ-6A DEB
1 55528U 22151YA  26236.11983413  .00003210  00000-0  77017-3 0  9996
2 55528  98.6291 291.1844 0070077  45.6520 315.0388 14.52680608193892
Epoch: 2026-08-24T02:52Z
TLE epoch observation values (Epoch: 2026-08-24T02:52:33.668Z)
Latitude
-0.00004°
Longitude
-84.36198°
Altitude
684.856 km
Speed
7.533 km/s
True Right ascension
19h 24m 44s
True Declination
0° 00' 00"
Sunlit
Object was in full shadow at epoch
Visualization orbit readout
Latitude
Unknown
Longitude
Unknown
Altitude
Unknown
Speed
Unknown
Apparent Right ascension
Unknown
Apparent Declination
Unknown
Sunlit
N/A
Visualization observer readout
Local Sidereal Time
08:04:32
Azimuth
Unknown
Elevation
Unknown
Doppler factor
Unknown
Orbital elements
Apogee altitude
763.717 km
Perigee altitude
664.318 km
Semi-major axis
7,092.155 km
Eccentricity
0.00701
Inclination
98.6291°
RAAN
291.1844°
Arg. of periapsis
45.652°
True anomaly
314.46783°
Mean anomaly
315.0388°
Eccentric anomaly
314.75367°
Mean motion
3.63392 °/min
Orbital period
99.07 mins
BSTAR
0.00077017
Loading maneuver chart data...
Computing Atmospheric mass density...
Loading historical data...
Loading historical data...
Loading historical data...
Loading historical data...
Loading historical data...
Loading historical data...
Loading historical data...

Documentation

Showing up to 5 results
|